TimeMDT,TemperatureF,Dew PointF,Humidity,Sea Level PressureIn,VisibilityMPH,Wind Direction,Wind SpeedMPH,Gust SpeedMPH,PrecipitationIn,Events,Conditions,WindDirDegrees,DateUTC
12:53 AM,66.0,44.1,45,29.65,10.0,ENE,16.1,-,N/A,,Clear,70,2013-05-17 06:53:00
1:53 AM,63.0,45.0,52,29.67,10.0,East,6.9,-,N/A,,Clear,90,2013-05-17 07:53:00
2:53 AM,60.1,45.0,57,29.71,10.0,North,6.9,-,N/A,,Clear,10,2013-05-17 08:53:00
3:53 AM,57.9,46.0,65,29.71,10.0,NNE,10.4,-,N/A,,Clear,20,2013-05-17 09:53:00
4:53 AM,55.9,46.9,72,29.73,10.0,North,9.2,-,N/A,,Clear,360,2013-05-17 10:53:00
5:53 AM,55.4,48.2,77,29.92,10.0,North,6.9,-,N/A,,Clear,10,2013-05-17 11:53:00
6:53 AM,57.0,48.9,74,29.77,10.0,WSW,4.6,-,N/A,,Clear,240,2013-05-17 12:53:00
7:53 AM,61.0,52.0,72,29.76,10.0,Calm,Calm,-,N/A,,Clear,0,2013-05-17 13:53:00
8:53 AM,64.0,52.0,65,29.75,10.0,Calm,Calm,-,N/A,,Clear,0,2013-05-17 14:53:00
9:53 AM,66.9,51.1,57,29.74,10.0,Calm,Calm,-,N/A,,Clear,0,2013-05-17 15:53:00
10:53 AM,73.0,48.0,41,29.71,10.0,ESE,5.8,-,N/A,,Clear,110,2013-05-17 16:53:00
11:53 AM,80.1,44.1,28,29.68,10.0,Variable,4.6,-,N/A,,Clear,0,2013-05-17 17:53:00
12:53 PM,84.2,28.4,13,29.86,10.0,SSW,5.8,-,N/A,,Clear,200,2013-05-17 18:53:00
1:53 PM,86.0,21.9,10,29.63,10.0,Variable,4.6,-,N/A,,Clear,0,2013-05-17 19:53:00
2:53 PM,87.1,26.1,11,29.61,10.0,SSE,9.2,-,N/A,,Clear,150,2013-05-17 20:53:00
3:53 PM,91.0,6.1,4,29.57,10.0,SSW,16.1,27.6,N/A,,Clear,200,2013-05-17 21:53:00
4:53 PM,90.0,8.1,5,29.57,10.0,SSW,16.1,27.6,N/A,,Clear,210,2013-05-17 22:53:00
5:53 PM,86.0,6.1,5,29.59,10.0,SW,24.2,29.9,N/A,,Clear,220,2013-05-17 23:53:00
6:53 PM,84.0,10.0,6,29.60,10.0,WSW,19.6,26.5,N/A,,Clear,240,2013-05-18 00:53:00
7:53 PM,79.0,12.9,8,29.61,10.0,SW,11.5,-,N/A,,Clear,230,2013-05-18 01:53:00
8:53 PM,78.1,12.0,8,29.62,10.0,SW,13.8,-,N/A,,Clear,230,2013-05-18 02:53:00
9:53 PM,66.9,15.1,14,29.66,10.0,WSW,8.1,-,N/A,,Clear,250,2013-05-18 03:53:00
10:53 PM,66.0,21.0,18,29.64,10.0,WSW,8.1,-,N/A,,Clear,240,2013-05-18 04:53:00
11:53 PM,57.0,18.0,22,29.66,10.0,Calm,Calm,-,N/A,,Clear,0,2013-05-18 05:53:00